| time (UTC) | temp C | wind direction | speed KPH | gust KPH | rain 1hr cm | rain 24hr cm | rain mn cm | humidity % | barometer mb |
| 20260508191551 | 13 | 19 | 12.9 | 20.9 | 0.00 | 0.00 | 0.00 | 53 | 1001.8 |
| 20260508190049 | 14 | 33 | 4.8 | 22.5 | 0.00 | 0.00 | 0.00 | 54 | 1001.6 |
| 20260508184552 | 14 | 86 | 6.4 | 20.9 | 0.00 | 0.00 | 0.00 | 57 | 1001.5 |
| 20260508183049 | 13 | 76 | 6.4 | 17.7 | 0.00 | 0.00 | 0.00 | 59 | 1001.5 |
| 20260508181543 | 13 | 74 | 11.3 | 19.3 | 0.00 | 0.00 | 0.00 | 59 | 1001.5 |
| 20260508180041 | 13 | 30 | 8.0 | 19.3 | 0.00 | 0.00 | 0.00 | 57 | 1001.6 |
| 20260508174557 | 13 | 27 | 8.0 | 17.7 | 0.00 | 0.00 | 0.00 | 59 | 1001.6 |
| 20260508173040 | 14 | 30 | 4.8 | 20.9 | 0.00 | 0.00 | 0.00 | 60 | 1001.8 |
| 20260508171537 | 13 | 28 | 9.7 | 25.7 | 0.00 | 0.00 | 0.00 | 57 | 1001.6 |
| 20260508170036 | 15 | 19 | 6.4 | 16.1 | 0.00 | 0.00 | 0.00 | 53 | 1001.5 |
| 20260508164529 | 14 | 103 | 8.0 | 16.1 | 0.00 | 0.00 | 0.00 | 52 | 1001.4 |
| 20260508163039 | 15 | 51 | 8.0 | 16.1 | 0.00 | 0.00 | 0.00 | 55 | 1001.5 |
| 20260508161624 | 14 | 349 | 8.0 | 16.1 | 0.00 | 0.00 | 0.00 | 49 | 1001.7 |
| 20260508160024 | 13 | 57 | 4.8 | 20.9 | 0.00 | 0.00 | 0.00 | 60 | 1001.7 |
| 20260508154520 | 13 | 18 | 8.0 | 20.9 | 0.00 | 0.00 | 0.00 | 58 | 1001.7 |
| 20260508153026 | 13 | 10 | 9.7 | 22.5 | 0.00 | 0.00 | 0.00 | 57 | 1001.8 |
| 20260508151523 | 13 | 42 | 6.4 | 17.7 | 0.00 | 0.00 | 0.00 | 63 | 1001.9 |
| 20260508150013 | 13 | 97 | 3.2 | 12.9 | 0.00 | 0.00 | 0.00 | 61 | 1001.7 |
| 20260508144509 | 13 | 35 | 4.8 | 16.1 | 0.00 | 0.00 | 0.00 | 61 | 1002.2 |
| 20260508143007 | 12 | 16 | 4.8 | 16.1 | 0.00 | 0.00 | 0.00 | 63 | 1002.2 |
| 20260508141506 | 12 | 29 | 6.4 | 17.7 | 0.00 | 0.00 | 0.00 | 64 | 1002.5 |
| 20260508140003 | 12 | 10 | 9.7 | 16.1 | 0.00 | 0.00 | 0.00 | 66 | 1002.7 |
| 20260508134501 | 12 | 360 | 6.4 | 16.1 | 0.00 | 0.00 | 0.00 | 69 | 1002.7 |
| 20260508133106 | 12 | 100 | 1.6 | 14.5 | 0.00 | 0.00 | 0.00 | 68 | 1002.4 |
| 20260508131558 | 11 | 84 | 6.4 | 14.5 | 0.00 | 0.00 | 0.00 | 69 | 1002.4 |
| 20260508130105 | 11 | 44 | 4.8 | 12.9 | 0.00 | 0.00 | 0.00 | 70 | 1002.3 |
| 20260508124548 | 10 | 135 | 1.6 | 12.9 | 0.00 | 0.00 | 0.00 | 73 | 1002.2 |
| 20260508123045 | 10 | 360 | 1.6 | 9.7 | 0.00 | 0.00 | 0.00 | 74 | 1002.6 |
| 20260508121542 | 9 | 5 | 3.2 | 8.0 | 0.00 | 0.00 | 0.00 | 77 | 1002.6 |
| 20260508120043 | 8 | 12 | 0.0 | 9.7 | 0.00 | 0.00 | 0.00 | 80 | 1002.8 |
| 20260508114538 | 7 | 351 | 3.2 | 6.4 | 0.00 | 0.00 | 0.00 | 87 | 1002.8 |
| 20260508113048 | 6 | 228 | 0.0 | 3.2 | 0.00 | 0.00 | 0.00 | 89 | 1002.8 |
| 20260508111537 | 6 | 228 | 0.0 | 0.0 | 0.00 | 0.00 | 0.00 | 90 | 1003.2 |
| 20260508110050 | 6 | 228 | 0.0 | 3.2 | 0.00 | 0.00 | 0.00 | 90 | 1003.2 |
| 20260508104536 | 5 | 228 | 0.0 | 1.6 | 0.00 | 0.00 | 0.00 | 90 | 1003.2 |
| 20260508103038 | 5 | 228 | 0.0 | 1.6 | 0.00 | 0.00 | 0.00 | 90 | 1003.2 |
| 20260508101537 | 5 | 228 | 0.0 | 1.6 | 0.00 | 0.00 | 0.00 | 89 | 1003.0 |
| 20260508100036 | 4 | 228 | 0.0 | 3.2 | 0.00 | 0.00 | 0.00 | 89 | 1002.4 |
| 20260508094530 | 4 | 228 | 0.0 | 3.2 | 0.00 | 0.00 | 0.00 | 89 | 1002.7 |
| 20260508093043 | 4 | 228 | 0.0 | 3.2 | 0.00 | 0.00 | 0.00 | 88 | 1002.5 |
| 20260508091531 | 4 | 229 | 0.0 | 3.2 | 0.00 | 0.00 | 0.00 | 88 | 1002.5 |
| 20260508090031 | 4 | 229 | 0.0 | 1.6 | 0.00 | 0.00 | 0.00 | 88 | 1002.4 |
| 20260508084524 | 5 | 228 | 0.0 | 4.8 | 0.00 | 0.00 | 0.00 | 87 | 1001.8 |
| 20260508083025 | 5 | 229 | 0.0 | 0.0 | 0.00 | 0.00 | 0.00 | 87 | 1001.9 |
| 20260508081520 | 5 | 229 | 0.0 | 0.0 | 0.00 | 0.00 | 0.00 | 86 | 1001.7 |
| 20260508080032 | 6 | 229 | 0.0 | 0.0 | 0.00 | 0.00 | 0.00 | 86 | 1001.7 |
| 20260508074516 | 6 | 229 | 0.0 | 3.2 | 0.00 | 0.00 | 0.00 | 86 | 1002.0 |
| 20260508073013 | 7 | 229 | 3.2 | 11.3 | 0.00 | 0.00 | 0.00 | 86 | 1001.9 |
| 20260508071509 | 7 | 270 | 4.8 | 14.5 | 0.00 | 0.00 | 0.00 | 86 | 1002.1 |
| 20260508070007 | 7 | 350 | 0.0 | 12.9 | 0.00 | 0.00 | 0.00 | 86 | 1002.0 |
| 20260508064510 | 7 | 158 | 0.0 | 4.8 | 0.00 | 0.00 | 0.00 | 86 | 1001.9 |
| 20260508063004 | 7 | 157 | 1.6 | 11.3 | 0.00 | 0.00 | 0.00 | 86 | 1002.0 |
| 20260508061503 | 7 | 145 | 4.8 | 12.9 | 0.00 | 0.00 | 0.00 | 86 | 1001.8 |
| 20260508054638 | 7 | 164 | 1.6 | 11.3 | 0.00 | 0.00 | 0.00 | 85 | 1001.9 |
| 20260508053056 | 8 | 203 | 1.6 | 12.9 | 0.00 | 0.00 | 0.00 | 85 | 1002.2 |
| 20260508051553 | 8 | 276 | 1.6 | 20.9 | 0.00 | 0.00 | 0.00 | 85 | 1001.9 |
| 20260508050053 | 8 | 25 | 1.6 | 12.9 | 0.00 | 0.00 | 0.00 | 85 | 1001.8 |
| 20260508044600 | 8 | 107 | 0.0 | 9.7 | 0.00 | 0.00 | 0.00 | 85 | 1002.0 |
| 20260508043050 | 8 | 180 | 1.6 | 6.4 | 0.00 | 0.00 | 0.00 | 86 | 1002.3 |
| 20260508041556 | 8 | 227 | 0.0 | 6.4 | 0.00 | 0.00 | 0.00 | 86 | 1002.2 |
| 20260508040054 | 8 | 227 | 3.2 | 12.9 | 0.00 | 0.00 | 0.00 | 87 | 1002.3 |
| 20260508034553 | 8 | 227 | 0.0 | 9.7 | 0.00 | 0.00 | 0.00 | 87 | 1002.4 |
| 20260508033047 | 8 | 180 | 0.0 | 4.8 | 0.00 | 0.00 | 0.00 | 87 | 1002.3 |
| 20260508031556 | 8 | 176 | 4.8 | 12.9 | 0.00 | 0.00 | 0.00 | 87 | 1002.2 |
| 20260508030141 | 8 | 235 | 1.6 | 11.3 | 0.00 | 0.00 | 0.00 | 87 | 1002.2 |
| 20260508024541 | 8 | 188 | 4.8 | 17.7 | 0.00 | 0.00 | 0.00 | 88 | 1002.3 |
| 20260508023043 | 8 | 235 | 0.0 | 11.3 | 0.00 | 0.00 | 0.00 | 88 | 1002.6 |
| 20260508021538 | 8 | 286 | 3.2 | 17.7 | 0.00 | 0.00 | 0.00 | 88 | 1002.2 |
| 20260508020035 | 9 | 192 | 0.0 | 9.7 | 0.00 | 0.00 | 0.00 | 88 | 1002.6 |
| 20260508013033 | 9 | 238 | 1.6 | 12.9 | 0.00 | 0.00 | 0.00 | 87 | 1002.6 |
| 20260508011533 | 9 | 144 | 1.6 | 14.5 | 0.00 | 0.00 | 0.00 | 87 | 1002.5 |
| 20260508010039 | 9 | 142 | 0.0 | 19.3 | 0.00 | 0.00 | 0.00 | 88 | 1002.4 |
| 20260508004525 | 10 | 211 | 6.4 | 16.1 | 0.00 | 0.00 | 0.00 | 88 | 1002.3 |
| 20260508003024 | 10 | 207 | 6.4 | 16.1 | 0.00 | 0.00 | 0.00 | 89 | 1002.2 |
| 20260508001531 | 10 | 221 | 6.4 | 14.5 | 0.00 | 0.00 | 0.00 | 89 | 1002.1 |
| 20260508000021 | 10 | 196 | 3.2 | 11.3 | 0.00 | 0.00 | 0.00 | 89 | 1002.0 |
| 20260507234519 | 11 | 211 | 0.0 | 4.8 | 0.00 | 0.00 | 0.00 | 92 | 1001.5 |
| 20260507233015 | 11 | 211 | 0.0 | 4.8 | 0.00 | 0.00 | 0.00 | 89 | 1001.5 |
| 20260507231514 | 11 | 210 | 1.6 | 9.7 | 0.00 | 0.00 | 0.00 | 89 | 1001.4 |
| 20260507230014 | 11 | 209 | 1.6 | 8.0 | 0.00 | 0.00 | 0.00 | 89 | 1001.5 |
| 20260507224512 | 11 | 202 | 1.6 | 6.4 | 0.00 | 0.00 | 0.00 | 89 | 1001.5 |
| 20260507223012 | 11 | 193 | 1.6 | 8.0 | 0.00 | 0.00 | 0.00 | 89 | 1001.5 |
| 20260507221518 | 11 | 200 | 0.0 | 8.0 | 0.00 | 0.00 | 0.00 | 89 | 1001.6 |
| 20260507220013 | 11 | 203 | 1.6 | 8.0 | 0.00 | 0.00 | 0.00 | 89 | 1001.6 |
| 20260507214510 | 11 | 221 | 3.2 | 12.9 | 0.00 | 0.00 | 0.00 | 89 | 1001.5 |
| 20260507213018 | 11 | 222 | 1.6 | 6.4 | 0.00 | 0.00 | 0.00 | 90 | 1001.7 |
| 20260507211509 | 11 | 191 | 0.0 | 8.0 | 0.00 | 0.00 | 0.00 | 89 | 1001.7 |
| 20260507210122 | 11 | 242 | 1.6 | 12.9 | 0.00 | 0.00 | 0.00 | 89 | 1001.8 |
| 20260507204505 | 11 | 232 | 0.0 | 3.2 | 0.00 | 0.00 | 0.00 | 89 | 1001.6 |
| 20260507203013 | 11 | 232 | 0.0 | 4.8 | 0.00 | 0.00 | 0.00 | 89 | 1001.4 |
| 20260507201513 | 11 | 232 | 0.0 | 8.0 | 0.00 | 0.00 | 0.00 | 88 | 1001.7 |
| 20260507200110 | 11 | 247 | 1.6 | 8.0 | 0.00 | 0.00 | 0.00 | 88 | 1002.2 |
| 20260507194557 | 11 | 246 | 3.2 | 11.3 | 0.00 | 0.00 | 0.00 | 88 | 1003.3 |
| 20260507193116 | 12 | 244 | 3.2 | 11.3 | 0.00 | 0.00 | 0.00 | 88 | 1003.6 |